This demonstration page uses our WeatherBlox Daily Observations layout. Learn more.

Left ArrowRight Arrow

39.08367, -84.50855

Hourly Observations for December 9, 2020

Temp ( °F °C ) Dew Point ( °F °C ) Humidity (%) Winds ( mph kmh ) Pressure ( in mb ) Visibility ( mi km ) Precip ( " mm )
12:53 am 00:53 Clear 32 0 25 -3.9 75 75 S 12 19 30.03 1017 10 16.0934 0 0
1:53 am 01:53 Clear 32 0 25 -3.9 75 75 S 5 7 30.02 1017 10 16.0934 0 0
2:53 am 02:53 Clear 30 -1.1 25 -3.9 82 82 S 5 7 30.02 1017 10 16.0934 0 0
3:53 am 03:53 Clear 32 0 27 -2.8 82 82 SSW 9 15 29.99 1016 10 16.0934 0 0
4:53 am 04:53 Mostly Clear 33 0.6 27 -2.8 78 78 S 6 9 29.99 1016 10 16.0934 0 0
5:53 am 05:53 Clear 33 0.6 27 -2.8 78 78 S 7 11 29.96 1015 9 14.48406 0 0
6:53 am 06:53 Clear 35 1.7 29 -1.7 78 78 SSW 8 13 29.95 1014 9 14.48406 0 0
7:53 am 07:53 Sunny 34 1.1 29 -1.7 82 82 SSW 7 11 29.96 1014 8 12.87472 0 0
8:53 am 08:53 Mostly Sunny 38 3.3 31 -0.6 76 76 SSW 10 17 29.95 1014 7 11.26538 0 0
9:53 am 09:53 Sunny 41 5 32 0 70 70 SW 6 9 29.96 1015 7 11.26538 0 0
10:53 am 10:53 Sunny 45 7.2 34 1.1 66 66 WSW 12 19 29.95 1014 8 12.87472 0 0
11:53 am 11:53 Sunny 48 8.9 34 1.1 58 58 undefined N/A 29.93 1014 9 14.48406 0 0
12:53 pm 12:53 Sunny 51 10.6 35 1.7 54 54 SW 8 13 29.9 1013 10 16.0934 0 0
1:53 pm 13:53 Sunny 54 12.2 34 1.1 47 47 SW 12 19 29.88 1012 10 16.0934 0 0
2:53 pm 14:53 Sunny 56 13.3 34 1.1 44 44 W 10 17 29.87 1012 10 16.0934 0 0
3:53 pm 15:53 Sunny 55 12.8 33 0.6 44 44 WSW 13 20 29.89 1012 10 16.0934 0 0
4:53 pm 16:53 Sunny 52 11.1 34 1.1 50 50 WSW 7 11 29.9 1013 10 16.0934 0 0
5:53 pm 17:53 Clear 48 8.9 32 0 54 54 W 3 6 29.93 1014 10 16.0934 0 0
6:53 pm 18:53 Clear 41 5 32 0 70 70 Calm 29.96 1015 10 16.0934 0 0
7:53 pm 19:53 Clear 36 2.2 31 -0.6 82 82 Calm 29.99 1016 10 16.0934 0 0
8:53 pm 20:53 Clear 35 1.7 31 -0.6 85 85 Calm 30 1016 10 16.0934 0 0
9:53 pm 21:53 Clear 34 1.1 31 -0.6 89 89 Calm 30.01 1016 10 16.0934 0 0
10:53 pm 22:53 Clear 32 0 29 -1.7 88 88 Calm 30.03 1017 9 14.48406 0 0
11:53 pm 23:53 Clear 30 -1.1 29 -1.7 96 96 NE 3 6 30.03 1017 8 12.87472 0 0

Powered by AerisWeather